Simultaneous Nadir Overpasses (SNOs) Predictions

Prediction of SNOs between AQUA and GOES-15 Satellite Orbit:

Table of predicted SNOs for the next 14.0 days since TLE Epoch: 9/1/2017
Index Date Time (AQUA) AQUA Lat,Lon GOES-15 Lat,Lon Distance(km) Time Diff (sec)
1 09/02/2017 10:37:35 0.45,-135.51 0.34,-135.06 51.72 80
2 09/04/2017 10:25:24 -0.20,-132.56 0.34,-135.04 281.90 80
3 09/04/2017 22:46:48 -0.90,-137.75 -0.33,-135.00 312.40 80
4 09/06/2017 22:34:36 -0.32,-134.79 -0.33,-134.97 21.08 80
5 09/08/2017 22:22:25 0.33,-131.83 -0.33,-134.94 353.76 80
6 09/09/2017 10:43:41 0.75,-136.99 0.33,-134.98 229.55 80
7 09/11/2017 10:31:29 0.16,-134.03 0.33,-134.93 102.05 80
8 09/11/2017 22:52:53 -1.25,-139.22 -0.32,-134.87 494.92 80
9 09/13/2017 10:19:18 -0.51,-131.08 0.32,-134.88 432.75 80
10 09/13/2017 22:40:41 -0.65,-136.26 -0.31,-134.82 164.23 80




NCC Satellite Simultaneous Nadir Overpasses (SNOs) Prediction Service
